This is the latest recevied weather packets stored in our database for station/object LY3FF-10. If no packets are shown the sender has not sent any weather packets the latest 10 day(s).
| Time | Temp. | Humidity | Pressure | Rain* | Wind** | Luminosity | Snow |
|---|---|---|---|---|---|---|---|
| 1777730727 | 25.56° C | 19% | 997.4 hPa | - | - | - | - |
| 1777729981 | 25° C | 19% | 997.4 hPa | - | - | - | - |
| 1777729082 | 33.33° C | 19% | 997.6 hPa | - | - | - | - |
| 1777728261 | 34.44° C | 19% | 997.8 hPa | - | - | - | - |
| 1777727367 | 25° C | 19% | 998 hPa | - | - | - | - |
| 1777726557 | 24.44° C | 22% | 997.9 hPa | - | - | - | - |
| 1777725739 | 24.44° C | 22% | 998.3 hPa | - | - | - | - |
| 1777724968 | 35.56° C | 26% | 998.3 hPa | - | - | - | - |
| 1777724172 | 36.67° C | 25% | 998.4 hPa | - | - | - | - |
| 1777723357 | 24.44° C | 24% | 998.6 hPa | - | - | - | - |
| 1777722587 | 36.11° C | 27% | 998.7 hPa | - | - | - | - |
| 1777721821 | 23.33° C | 26% | 998.7 hPa | - | - | - | - |
| 1777720927 | 23.33° C | 30% | 998.8 hPa | - | - | - | - |
| 1777720197 | 35° C | 30% | 999 hPa | - | - | - | - |
| 1777719387 | 34.44° C | 30% | 999 hPa | - | - | - | - |
| 1777718632 | 33.33° C | 29% | 999 hPa | - | - | - | - |
| 1777717862 | 22.22° C | 28% | 999.2 hPa | - | - | - | - |
| 1777716987 | 33.33° C | 31% | 999.1 hPa | - | - | - | - |
| 1777716097 | 31.11° C | 29% | 999.2 hPa | - | - | - | - |
| 1777715367 | 21.11° C | 34% | 999.2 hPa | - | - | - | - |
| 1777714522 | 20.56° C | 37% | 999.4 hPa | - | - | - | - |
| 1777713802 | 21.67° C | 38% | 999.4 hPa | - | - | - | - |
| 1777712962 | 20.56° C | 39% | 999.5 hPa | - | - | - | - |
| 1777712232 | 18.89° C | 39% | 999.6 hPa | - | - | - | - |
| 1777711437 | 18.33° C | 41% | 999.7 hPa | - | - | - | - |
* Rain since midnight (hover to see other rain measurements)
** Current wind speed in m/s (hover to see current wind gust speed)